Home > Time Zones > World Clock > Weather > India > Theni > Past weeks

Flag for India Weather past 2 weeks in Theni, Tamil Nadu, India

Now
99 °F

Passing clouds.


Feels Like: 95 °F
Forecast: 76 / 102 °F
Wind: 10 mph from East

Location: Coimbatore / Peelamedu


UV Index: 10 (Very high)

Visibility: 5 mi


Pressure: 29.80 "Hg

Humidity: 19%

Dew point: 50 °F

Location of TheniLocation

Historic Weather in Theni

°F

Theni temperature yesterday

Maximum temperature yesterday: 99 °F (at 2:00 PM)
Minimum temperature yesterday: 79 °F (at 6:00 AM)
Average temperature yesterday: 91 °F

Past Weeks' High & Low Weather Summary

 TemperatureHumidityPressure
High100 °F (Apr 23, 3:30 PM)94% (Apr 12, 7:00 AM)30.01 "Hg (Apr 12, 7:00 AM)
Low75 °F (Apr 10, 11:30 PM)16% (Apr 20, 7:00 PM)29.74 "Hg (Apr 12, 3:30 PM)
Average87 °F56%29.88 "Hg
* Reported Apr 8 4:30 PM — Apr 23 5:00 PM, Theni, Weather by CustomWeather, © 2014

Note: Actual official high and low records may vary slightly from our data, if they occured in-between our weather recording intervals... More about our weather records

Advertising

Historic Weather Conditions — Data for Previous 24 hours

 ConditionsComfort  
Time TempWeatherWind HumidityBarometerVisibility
5:00 PM
Apr 23
100 °FPassing clouds.8 mph18%29.77 "Hg5 mi
4:30 PM100 °FPassing clouds.6 mph20%29.77 "Hg5 mi
4:00 PM100 °FPassing clouds.7 mph20%29.80 "Hg5 mi
3:30 PM100 °FPassing clouds.13 mph24%29.80 "Hg5 mi
3:00 PM99 °FPassing clouds.5 mph25%29.80 "Hg5 mi
2:30 PM97 °FPassing clouds.9 mph27%29.83 "Hg5 mi
2:00 PM97 °FPassing clouds.3 mph27%29.86 "Hg5 mi
1:30 PM97 °FPassing clouds.7 mph28%29.86 "Hg5 mi
1:00 PM95 °FPassing clouds.8 mph28%29.89 "Hg5 mi
12:30 PM95 °FPassing clouds.7 mph30%29.92 "Hg4 mi
12:00 PM93 °FScattered clouds.10 mph36%29.92 "Hg4 mi
11:30 AM91 °FScattered clouds.7 mph44%29.95 "Hg3 mi
10:30 AM90 °FScattered clouds.8 mph52%29.95 "Hg2 mi
10:00 AM88 °FScattered clouds.7 mph59%29.95 "Hg2 mi
9:30 AM86 °FHaze.6 mph66%29.95 "Hg2 mi
9:00 AM84 °FHaze.3 mph66%29.95 "Hg2 mi
8:30 AM84 °FHaze.6 mph66%29.95 "Hg2 mi
8:00 AM82 °FHaze.5 mph70%29.95 "Hg2 mi
7:30 AM81 °FHaze.8 mph79%29.95 "Hg2 mi
7:00 AM81 °FFog.7 mph74%29.92 "Hg1 mi
6:30 AM79 °FFog.5 mph89%29.92 "Hg1 mi
5:30 AM81 °FHaze.2 mph84%29.89 "Hg2 mi
2:30 AM82 °FHaze.3 mph79%29.95 "Hg2 mi
11:30 PM
Apr 22
84 °FClear.3 mph70%29.95 "Hg4 mi
10:30 PM84 °FClear.6 mph70%29.95 "Hg4 mi
10:00 PM86 °FClear.7 mph62%29.95 "Hg4 mi
9:30 PM88 °FClear.8 mph59%29.92 "Hg4 mi
9:00 PM91 °FClear.8 mph30%29.92 "Hg4 mi
8:30 PM93 °FClear.7 mph26%29.89 "Hg4 mi
8:00 PM93 °FClear.6 mph26%29.89 "Hg4 mi
7:30 PM93 °FClear.3 mph26%29.89 "Hg4 mi
7:00 PM95 °FClear.7 mph22%29.89 "Hg4 mi
6:30 PM95 °FPassing clouds.8 mph25%29.86 "Hg4 mi
6:00 PM97 °FPassing clouds.9 mph25%29.86 "Hg4 mi
Weather by CustomWeather, © 2014

See weather overview